Key statistics
Satellite COSMOS 1275 DEB at a glance.
Uptime
15906
Days in orbit
Revolutions
≈ 14.7
Per day
Orbit
LEO
Low Earth Orbit
Inclination
83.0
Latest
Satellite identification and parameters
Extended collection of information and parameters for COSMOS 1275 DEB.
Object identification
Identified? True
Debris? True
Object name: COSMOS 1275 DEB
International designator: 1981-053PS
Object number (NORAD): 42106
Object ID (CCSDS): 42106
Country: COMMONWEALTH OF INDEPENDENT STATES (CIS)
Current information (Y/N): Y
RCS size: SMALL
Orbital parameters
Decay date: Dec. 21, 2024
Period: 97.721 minutes
Inclination: 83.0495 deg
SMA: 7027.795 km
Apoapsis: 667.268 km
Periapsis: 632.052 km
RAAN: 228.7852 deg
Eccentricy: 0.0025055
Argument of periapsis: 316.8213 deg
Mean anomaly: 165.4933 deg
Mean motion: 14.73581498 rev/day
Mean motion (dot): 0.00013624 rev/day2
B* drag term: 0.0020776 1/REarth
Two-line elements (TLE)
Creation date: Feb. 11, 2024, 5:15 p.m.
Reference frame: TEME
Reference center: EARTH
Epoch: Feb. 11, 2024, 6:19 a.m. UTC
TLE line 0: 0 COSMOS 1275 DEB
TLE line 1: 1 42106U 81053PS 24042.26337100 .00013624 00000-0 20776-2 0 9994
TLE line 2: 2 42106 83.0495 228.7852 0025055 316.8213 165.4933 14.73581498541369
Live tracking on map
Satellite COSMOS 1275 DEB has decayed and is no longer in orbit. No tracking available.
In-orbit conjunctions
Satellite COSMOS 1275 DEB has decayed and is no longer in orbit. No conjunctions available.
Associated space launch
Navigation satellite providing location information for the Tsiklon-B navigation system
COSMOS 1275 DEB was lifted into orbit during the mission ‘Kosmos-3M | Parus 27’, on board a Kosmos-3M space rocket.
The launch took place on June 4, 1981, 3:41 p.m. from 132/2.
For more information about the launch, click the button.
Kosmos-3M | Parus 27
Agency: N/A
Status: Launch Successful
Launch date: June 4, 1981, 3:41 p.m. UTC
Rocket: Kosmos-3M
Launch pad: 132/2
Location: Plesetsk Cosmodrome, Russian Federation
...
Latest news about this satellite
There are no fresh news available about this satellite. Check back as we update our databases every day.
Newsletter sign-up
Weekly statistics, charts and insights to help you stay on top of the space industry.
